Regional Weather Roundup
Issued by NWS Newport/Morehead, NC

Current Version | Previous Version | Text Only | Print | Product List | Glossary Off
Versions: 1 2 3 4 5 6 7 8 9 10 11 12 13 14 15 16 17 18 19 20 21 22 23 24 25 26 27 28 29 30 31 32 33 34 35 36 37 38 39 40 41 42 43 44 45 46 47 48 49 50
370 ASUS42 KMHX 221313 RWRMHX WEATHER ROUNDUP FOR EASTERN NORTH CAROLINA NATIONAL WEATHER SERVICE NEWPORT/MOREHEAD CITY NC 900 AM EDT TUE AUG 22 2017 NOTE: "FAIR" INDICATES FEW OR NO CLOUDS BELOW 12,000 FEET WITH NO SIGNIFICANT WEATHER AND/OR OBSTRUCTIONS TO VISIBILITY NCZ015>017-031-032-045>047-102-103-221400- NORTH COAST CITY SKY/WX TMP DP RH WIND PRES REMARKS EDENTON CLOUDY 79 77 92 CALM 30.12F FOG ELIZABETH CITY SUNNY 81 78 91 SW7 30.11F KITTY HAWK MOSUNNY 81 75 83 CALM 30.11F MANTEO SUNNY 80 76 87 CALM 30.13S $$ NCZ045>047-081-094-103-104-221400- CENTRAL COAST CITY SKY/WX TMP DP RH WIND PRES REMARKS FRISCO SUNNY 83 77 82 S5 30.12F $$ NCZ095-097-098-100-101-221400- SOUTHERN COAST CITY SKY/WX TMP DP RH WIND PRES REMARKS BEAUFORT PTSUNNY 83 78 85 SE3 30.11F CEDAR ISLAND NOT AVBL JACKSONVILLE MOSUNNY 82 78 88 SE3 30.11S PINEY ISLAND MOSUNNY N/A N/A N/A CALM 30.11F WILMINGTON MOSUNNY 83 77 82 CALM 30.11S $$ NCZ011>013-027>030-043-044-078>080-089-090>093-098-221400- COASTAL PLAIN CITY SKY/WX TMP DP RH WIND PRES REMARKS AHOSKIE N/A 75 74 99 CALM 30.12S FOG CLINTON CLOUDY 76 76 100 CALM 30.13R ELIZABETHTOWN NOT AVBL GOLDSBORO PTSUNNY 77 77 100 SW2 30.11S FOG GREENVILLE CLOUDY 77 77 100 CALM 30.13S HAVELOCK MOSUNNY 83 77 82 CALM 30.12F KENANSVILLE MOSUNNY 77 77 100 CALM 30.12S KINSTON MOSUNNY 77 77 100 CALM 30.13S NEW BERN SUNNY 82 78 88 CALM 30.13S RICHLANDS SUNNY 81 77 88 CALM 30.12S ROCKY MOUNT CLOUDY 76 76 100 SW3 30.12S FOG WASHINGTON MOSUNNY 80 76 90 CALM 30.12F WHITEVILLE SUNNY 80 76 89 CALM 30.11S $$ AMZ130-135-150-152-154-156-158-170-250-252-270-ANZ085-086-088-633-658-670-221400- MARINE OBSERVATIONS STATION/POSITION TIME TEMP WIND PRES WAVE SWELL AIR SEA DIR/SP/G HT/PER HT/PER (UTC) (F) (DEG/KT/KT) (MB) (FT/S) (FT/S) CHESAPEAKE LIGHT NOT AVBL 64 E VA BEACH 1250 79 79 200/ 6/ 8 1020.2 2/ 9 2/ 9 DUCK 1242 80 75 220/ 8/ 9 1019.4 2 E DUCK 1300 80 N/A 2/ 8 2/13 OREGON INLET 1242 80 81 240/ 3/ 5 1019.9 13E OREGON INLT 1248 80 N/A 2/10 2/10 HATTERAS CG 1242 82 82 150/ 4/ 5 1020.0 DIAMOND BUOY 1250 82 87 260/ 2/ 4 1019.8 2/11 2/11 CAPE LOOKOUT 1200 82 150/ 2/ 3 1019.4 BEAUFORT LAB 1242 82 80 120/ 3/ 5 1019.2 30 SE NEW RVR IN 1208 80 83 180/ 10/ 14 1019.8 30 SE NEW RVR IN 1213 83 N/A 3/ 9 2/13 27 SE WRIGHTSVLE 1208 83 84 110/ 4/ 8 1019.5 5 SE WRIGHTSVLE 1208 81 83 120/ 6/ 8 1019.1 225 S CAPE HAT 1250 82 83 110/ 4/ 6 1020.1 5/10 5/10 41 SE CHARLESTON 1250 83 84 230/ 4/ 6 1019.1 4/ 8 3/ 8 $$

USA.gov is the U.S. government's official web portal to all federal, state and local government web resources and services.